ACI330 NWWW-NFFN

Flight info

Callsign ACI330
Flight time 1h 30m
Altitude 37000
Route LTO3E LTO B599 ALBAB DCT VIBEX
Aircraft A20N/M-SDE2E3FGHIRWXY/LB1

Departure

Time 2026-05-08 19:04
Airport La Tontouta International Airport (NWWW)

Arrival

Time 2026-05-08 20:35
Airport Nadi International Airport (NFFN)
Time Latitude Longitude Altitude Speed Heading
2026-05-08 19:04 -22.12422 166.17810 6964 ft 280 kts 333°
2026-05-08 19:04 -22.10522 166.17282 7787 ft 284 kts 360°
2026-05-08 19:04 -22.08589 166.17735 8518 ft 290 kts 20°
2026-05-08 19:05 -22.06718 166.18562 9220 ft 295 kts 21°
2026-05-08 19:05 -22.04872 166.19373 9872 ft 299 kts 20°
2026-05-08 19:05 -22.03311 166.20036 10405 ft 303 kts 19°
2026-05-08 19:06 -21.99639 166.23389 11083 ft 345 kts 65°
2026-05-08 19:06 -21.98779 166.25851 11356 ft 361 kts 69°
2026-05-08 19:06 -21.97935 166.28448 11614 ft 376 kts 69°
2026-05-08 19:06 -21.97053 166.31125 11818 ft 390 kts 69°
2026-05-08 19:07 -21.96116 166.33920 12023 ft 403 kts 69°
2026-05-08 19:07 -21.95152 166.36760 12255 ft 415 kts 68°
2026-05-08 19:07 -21.94205 166.39531 12638 ft 420 kts 68°
2026-05-08 19:07 -21.93257 166.42291 13096 ft 423 kts 68°
2026-05-08 19:08 -21.92530 166.44400 13422 ft 425 kts 68°
2026-05-08 19:08 -21.91446 166.47542 13904 ft 428 kts 68°
2026-05-08 19:08 -21.89628 166.52794 14661 ft 434 kts 68°
2026-05-08 19:09 -21.88732 166.55383 15034 ft 436 kts 67°
2026-05-08 19:09 -21.87885 166.57825 15362 ft 439 kts 67°
2026-05-08 19:09 -21.86932 166.60570 15751 ft 441 kts 67°
2026-05-08 19:09 -21.85175 166.65626 16467 ft 445 kts 66°
2026-05-08 19:10 -21.84078 166.68788 16873 ft 449 kts 66°
2026-05-08 19:10 -21.82992 166.71905 17287 ft 451 kts 66°
2026-05-08 19:10 -21.82011 166.74722 17645 ft 454 kts 66°
2026-05-08 19:10 -21.80825 166.78124 18069 ft 457 kts 66°
2026-05-08 19:11 -21.79710 166.81320 18466 ft 460 kts 66°
2026-05-08 19:11 -21.78656 166.84340 18838 ft 462 kts 66°
2026-05-08 19:11 -21.77555 166.87495 19218 ft 464 kts 66°
2026-05-08 19:11 -21.76488 166.90546 19566 ft 467 kts 66°
2026-05-08 19:12 -21.75348 166.93810 19940 ft 470 kts 66°
2026-05-08 19:12 -21.74201 166.97089 20330 ft 472 kts 66°
2026-05-08 19:12 -21.73042 167.00397 20693 ft 475 kts 66°
2026-05-08 19:12 -21.71880 167.03716 21040 ft 478 kts 66°
2026-05-08 19:13 -21.70696 167.07092 21409 ft 480 kts 66°
2026-05-08 19:13 -21.69509 167.10472 21763 ft 483 kts 66°
2026-05-08 19:13 -21.68338 167.13811 22112 ft 485 kts 66°
2026-05-08 19:13 -21.67142 167.17212 22456 ft 487 kts 66°
2026-05-08 19:14 -21.65939 167.20630 22802 ft 490 kts 66°
2026-05-08 19:14 -21.64729 167.24071 23093 ft 493 kts 66°
2026-05-08 19:14 -21.63513 167.27521 23365 ft 497 kts 66°
2026-05-08 19:14 -21.62288 167.30995 23647 ft 500 kts 66°
2026-05-08 19:15 -21.61047 167.34509 23913 ft 503 kts 66°
2026-05-08 19:15 -21.59809 167.38016 24178 ft 506 kts 66°
2026-05-08 19:15 -21.58563 167.41545 24420 ft 509 kts 66°
2026-05-08 19:15 -21.57284 167.45163 24669 ft 512 kts 66°
2026-05-08 19:16 -21.56020 167.48735 24930 ft 514 kts 66°
2026-05-08 19:16 -21.54756 167.52309 25250 ft 515 kts 66°
2026-05-08 19:16 -21.53489 167.55885 25594 ft 515 kts 66°
2026-05-08 19:16 -21.52218 167.59470 25886 ft 516 kts 66°
2026-05-08 19:17 -21.50937 167.63075 26187 ft 517 kts 66°
2026-05-08 19:17 -21.49656 167.66685 26496 ft 517 kts 66°
2026-05-08 19:17 -21.48367 167.70312 26795 ft 518 kts 66°
2026-05-08 19:17 -21.47085 167.73918 27099 ft 518 kts 66°
2026-05-08 19:18 -21.45783 167.77574 27380 ft 519 kts 66°
2026-05-08 19:18 -21.44499 167.81177 27668 ft 520 kts 66°
2026-05-08 19:18 -21.43210 167.84795 27960 ft 520 kts 66°
2026-05-08 19:18 -21.41909 167.88441 28269 ft 521 kts 66°
2026-05-08 19:19 -21.40623 167.92040 28562 ft 521 kts 66°
2026-05-08 19:19 -21.39327 167.95664 28867 ft 522 kts 66°
2026-05-08 19:19 -21.38032 167.99284 29141 ft 522 kts 66°
2026-05-08 19:19 -21.36719 168.02949 29415 ft 523 kts 66°
2026-05-08 19:20 -21.35839 168.05405 29593 ft 524 kts 66°
2026-05-08 19:20 -21.34968 168.07835 29782 ft 524 kts 66°
2026-05-08 19:20 -21.32795 168.13890 30248 ft 526 kts 66°
2026-05-08 19:20 -21.31485 168.17539 30512 ft 526 kts 66°
2026-05-08 19:21 -21.30297 168.20845 30776 ft 527 kts 66°
2026-05-08 19:21 -21.29068 168.24254 31040 ft 527 kts 66°
2026-05-08 19:21 -21.27766 168.27846 31305 ft 528 kts 66°
2026-05-08 19:21 -21.26418 168.31552 31568 ft 528 kts 66°
2026-05-08 19:22 -21.25075 168.35239 31811 ft 529 kts 66°
2026-05-08 19:22 -21.23735 168.38922 32068 ft 530 kts 66°
2026-05-08 19:22 -21.22406 168.42567 32332 ft 530 kts 66°
2026-05-08 19:22 -21.21070 168.46230 32581 ft 531 kts 66°
2026-05-08 19:23 -21.19723 168.49925 32816 ft 532 kts 66°
2026-05-08 19:23 -21.18373 168.53618 33086 ft 532 kts 66°
2026-05-08 19:23 -21.17024 168.57310 33374 ft 532 kts 66°
2026-05-08 19:23 -21.15694 168.60953 33635 ft 532 kts 66°
2026-05-08 19:24 -21.14335 168.64665 33869 ft 532 kts 66°
2026-05-08 19:24 -21.12998 168.68318 34041 ft 534 kts 66°
2026-05-08 19:24 -21.11626 168.72063 34203 ft 535 kts 66°
2026-05-08 19:24 -21.10274 168.75746 34356 ft 535 kts 66°
2026-05-08 19:25 -21.08924 168.79423 34524 ft 536 kts 66°
2026-05-08 19:25 -21.07565 168.83124 34692 ft 536 kts 66°
2026-05-08 19:25 -21.06189 168.86864 34845 ft 536 kts 66°
2026-05-08 19:25 -21.04838 168.90535 34985 ft 537 kts 66°
2026-05-08 19:26 -21.03466 168.94260 34990 ft 538 kts 66°
2026-05-08 19:26 -21.00724 169.01698 34993 ft 538 kts 66°
2026-05-08 19:27 -20.97967 169.09170 34996 ft 539 kts 66°
2026-05-08 19:27 -20.95214 169.16617 34992 ft 539 kts 66°
2026-05-08 19:28 -20.92466 169.24033 34994 ft 539 kts 66°
2026-05-08 19:28 -20.89703 169.31480 34992 ft 538 kts 66°
2026-05-08 19:29 -20.86946 169.38908 34991 ft 538 kts 67°
2026-05-08 19:29 -20.84302 169.46008 34993 ft 537 kts 67°
2026-05-08 19:30 -20.81550 169.53392 34994 ft 537 kts 67°
2026-05-08 19:30 -20.78800 169.60767 34994 ft 537 kts 67°
2026-05-08 19:31 -20.76057 169.68112 34992 ft 536 kts 66°
2026-05-08 19:31 -20.73323 169.75413 34994 ft 536 kts 66°
2026-05-08 19:32 -20.71082 169.81390 34994 ft 536 kts 66°
2026-05-08 19:32 -20.67964 169.89696 34994 ft 536 kts 66°
2026-05-08 19:33 -20.65712 169.95688 34993 ft 536 kts 66°
2026-05-08 19:33 -20.62593 170.03976 34992 ft 536 kts 66°
2026-05-08 19:34 -20.59871 170.11197 34995 ft 537 kts 66°
2026-05-08 19:34 -20.57120 170.18480 34993 ft 536 kts 67°
2026-05-08 19:35 -20.54413 170.25638 34994 ft 536 kts 66°
2026-05-08 19:35 -20.51588 170.33098 34993 ft 536 kts 66°
2026-05-08 19:36 -20.48820 170.40396 34992 ft 536 kts 66°
2026-05-08 19:36 -20.46016 170.47772 34993 ft 535 kts 66°
2026-05-08 19:37 -20.43281 170.54968 34993 ft 534 kts 67°
2026-05-08 19:37 -20.40455 170.62393 34995 ft 535 kts 67°
2026-05-08 19:38 -20.37689 170.69653 34991 ft 535 kts 66°
2026-05-08 19:38 -20.34910 170.76933 34993 ft 534 kts 66°
2026-05-08 19:39 -20.32054 170.84405 34995 ft 533 kts 66°
2026-05-08 19:39 -20.29241 170.91745 34994 ft 533 kts 67°
2026-05-08 19:40 -20.26408 170.99139 34996 ft 533 kts 66°
2026-05-08 19:40 -20.23579 171.06502 34993 ft 533 kts 66°
2026-05-08 19:41 -20.20755 171.13844 34994 ft 533 kts 67°
2026-05-08 19:41 -20.17917 171.21217 34994 ft 533 kts 67°
2026-05-08 19:42 -20.15324 171.27940 34995 ft 533 kts 67°
2026-05-08 19:42 -20.12407 171.35494 34996 ft 533 kts 67°
2026-05-08 19:43 -20.09580 171.42799 34994 ft 533 kts 67°
2026-05-08 19:43 -20.06741 171.50131 34995 ft 532 kts 66°
2026-05-08 19:44 -20.03895 171.57469 34994 ft 531 kts 66°
2026-05-08 19:44 -20.01075 171.64725 34995 ft 532 kts 67°
2026-05-08 19:45 -19.98225 171.72057 34994 ft 531 kts 66°
2026-05-08 19:45 -19.95377 171.79362 34995 ft 531 kts 66°
2026-05-08 19:46 -19.92522 171.86682 34996 ft 530 kts 66°
2026-05-08 19:46 -19.88255 171.97600 34997 ft 530 kts 66°
2026-05-08 19:47 -19.85386 172.04933 34993 ft 530 kts 66°
2026-05-08 19:47 -19.82558 172.12144 34991 ft 529 kts 66°
2026-05-08 19:48 -19.79696 172.19432 34995 ft 528 kts 67°
2026-05-08 19:48 -19.76855 172.26662 34996 ft 528 kts 66°
2026-05-08 19:49 -19.73999 172.33916 34993 ft 528 kts 67°
2026-05-08 19:49 -19.71168 172.41098 34994 ft 528 kts 67°
2026-05-08 19:50 -19.68342 172.48256 34992 ft 528 kts 67°
2026-05-08 19:50 -19.65441 172.55598 34994 ft 528 kts 67°
2026-05-08 19:51 -19.62628 172.62706 34997 ft 527 kts 67°
2026-05-08 19:51 -19.59758 172.69948 34998 ft 526 kts 66°
2026-05-08 19:52 -19.56899 172.77145 35003 ft 526 kts 66°
2026-05-08 19:52 -19.54039 172.84348 35002 ft 526 kts 66°
2026-05-08 19:53 -19.51177 172.91540 35004 ft 526 kts 66°
2026-05-08 19:53 -19.48298 172.98763 35005 ft 526 kts 66°
2026-05-08 19:54 -19.45436 173.05933 35008 ft 525 kts 66°
2026-05-08 19:54 -19.42746 173.12663 35008 ft 525 kts 66°
2026-05-08 19:55 -19.39730 173.20201 35011 ft 524 kts 66°
2026-05-08 19:55 -19.36876 173.27330 35015 ft 524 kts 66°
2026-05-08 19:56 -19.34040 173.34399 35018 ft 523 kts 66°
2026-05-08 19:56 -19.31188 173.41498 35019 ft 523 kts 67°
2026-05-08 19:57 -19.28342 173.48575 35017 ft 523 kts 66°
2026-05-08 19:57 -19.25483 173.55673 35017 ft 522 kts 66°
2026-05-08 19:58 -19.22638 173.62727 35017 ft 522 kts 67°
2026-05-08 19:58 -19.19791 173.69778 35017 ft 521 kts 66°
2026-05-08 19:59 -19.16949 173.76805 35016 ft 521 kts 66°
2026-05-08 19:59 -19.14108 173.83824 35017 ft 521 kts 66°
2026-05-08 20:00 -19.11301 173.90749 35019 ft 521 kts 66°
2026-05-08 20:00 -19.08489 173.97678 35018 ft 519 kts 66°
2026-05-08 20:01 -19.05601 174.04784 35017 ft 520 kts 66°
2026-05-08 20:01 -19.02745 174.11806 35017 ft 521 kts 66°
2026-05-08 20:02 -18.99849 174.18910 35015 ft 520 kts 66°
2026-05-08 20:02 -18.96957 174.26003 35017 ft 520 kts 66°
2026-05-08 20:03 -18.94074 174.33057 35016 ft 520 kts 66°
2026-05-08 20:03 -18.91185 174.40118 35014 ft 520 kts 66°
2026-05-08 20:04 -18.88350 174.47041 35014 ft 520 kts 67°
2026-05-08 20:04 -18.85458 174.54097 35015 ft 519 kts 67°
2026-05-08 20:05 -18.82556 174.61165 35013 ft 519 kts 66°
2026-05-08 20:05 -18.79654 174.68222 35011 ft 519 kts 66°
2026-05-08 20:06 -18.76748 174.75287 35012 ft 519 kts 66°
2026-05-08 20:06 -18.73848 174.82318 35012 ft 519 kts 66°
2026-05-08 20:07 -18.71022 174.89169 35010 ft 519 kts 66°
2026-05-08 20:07 -18.68312 174.95726 35011 ft 517 kts 66°
2026-05-08 20:08 -18.65245 175.03142 35010 ft 518 kts 66°
2026-05-08 20:08 -18.62343 175.10165 35009 ft 517 kts 66°
2026-05-08 20:09 -18.59437 175.17180 35008 ft 517 kts 66°
2026-05-08 20:09 -18.56557 175.24120 35008 ft 517 kts 66°
2026-05-08 20:10 -18.53636 175.31152 35008 ft 517 kts 66°
2026-05-08 20:10 -18.50744 175.38103 35007 ft 517 kts 66°
2026-05-08 20:11 -18.47920 175.44887 35007 ft 517 kts 66°
2026-05-08 20:11 -18.45051 175.51770 35004 ft 516 kts 66°
2026-05-08 20:12 -18.42165 175.58681 34968 ft 517 kts 66°
2026-05-08 20:12 -18.40733 175.62108 34684 ft 516 kts 67°
2026-05-08 20:12 -18.39294 175.65543 34368 ft 514 kts 66°
2026-05-08 20:13 -18.37860 175.68970 33784 ft 513 kts 66°
2026-05-08 20:13 -18.36458 175.72324 33035 ft 513 kts 68°
2026-05-08 20:13 -18.35175 175.75766 32261 ft 513 kts 72°
2026-05-08 20:13 -18.34098 175.79352 31461 ft 514 kts 77°
2026-05-08 20:14 -18.33272 175.83008 30597 ft 516 kts 81°
2026-05-08 20:14 -18.32701 175.86717 29767 ft 515 kts 86°
2026-05-08 20:14 -18.32365 175.90475 28935 ft 514 kts 89°
2026-05-08 20:14 -18.32114 175.94177 28124 ft 515 kts 89°
2026-05-08 20:15 -18.31874 175.97917 27355 ft 513 kts 89°
2026-05-08 20:15 -18.31627 176.01686 26596 ft 510 kts 89°
2026-05-08 20:15 -18.31378 176.05365 25848 ft 507 kts 88°
2026-05-08 20:15 -18.31125 176.08974 25078 ft 504 kts 88°
2026-05-08 20:16 -18.30862 176.12679 24398 ft 498 kts 88°
2026-05-08 20:16 -18.30602 176.16260 23939 ft 488 kts 88°
2026-05-08 20:16 -18.30341 176.19836 23465 ft 479 kts 88°
2026-05-08 20:16 -18.30088 176.23286 22990 ft 475 kts 88°
2026-05-08 20:17 -18.29839 176.26704 22517 ft 470 kts 88°
2026-05-08 20:17 -18.29588 176.30130 22024 ft 465 kts 88°
2026-05-08 20:17 -18.29342 176.33502 21534 ft 461 kts 87°
2026-05-08 20:17 -18.29101 176.36780 21055 ft 457 kts 87°
2026-05-08 20:18 -18.28853 176.40144 20565 ft 453 kts 87°
2026-05-08 20:18 -18.28609 176.43437 20083 ft 449 kts 87°
2026-05-08 20:18 -18.28369 176.46675 19603 ft 445 kts 87°
2026-05-08 20:18 -18.28128 176.49910 19104 ft 441 kts 87°
2026-05-08 20:19 -18.27891 176.53102 18580 ft 437 kts 86°
2026-05-08 20:19 -18.27657 176.56264 18047 ft 433 kts 86°
2026-05-08 20:19 -18.27422 176.59390 17507 ft 428 kts 87°
2026-05-08 20:19 -18.27189 176.62488 16947 ft 425 kts 86°
2026-05-08 20:20 -18.26956 176.65604 16382 ft 421 kts 86°
2026-05-08 20:20 -18.26727 176.68652 15821 ft 418 kts 86°
2026-05-08 20:20 -18.26500 176.71652 15273 ft 414 kts 85°
2026-05-08 20:20 -18.26271 176.74684 14703 ft 412 kts 85°
2026-05-08 20:21 -18.26045 176.77660 14141 ft 409 kts 85°
2026-05-08 20:21 -18.25818 176.80646 13587 ft 405 kts 85°
2026-05-08 20:21 -18.25594 176.83574 13043 ft 402 kts 85°
2026-05-08 20:21 -18.25369 176.86502 12482 ft 399 kts 85°
2026-05-08 20:22 -18.25145 176.89406 11919 ft 397 kts 85°
2026-05-08 20:22 -18.24926 176.92250 11509 ft 389 kts 85°
2026-05-08 20:22 -18.24548 176.95023 11148 ft 378 kts 72°
2026-05-08 20:22 -18.23804 176.96664 10963 ft 369 kts 54°
2026-05-08 20:23 -18.21280 176.98898 10734 ft 349 kts 29°
2026-05-08 20:23 -18.19171 177.00131 10544 ft 338 kts 29°
2026-05-08 20:23 -18.17159 177.01331 10368 ft 326 kts 30°
2026-05-08 20:23 -18.15277 177.02472 10212 ft 316 kts 30°
2026-05-08 20:24 -18.13526 177.03548 10078 ft 305 kts 30°
2026-05-08 20:24 -18.11706 177.04675 9902 ft 296 kts 30°
2026-05-08 20:24 -18.09956 177.05765 9543 ft 294 kts 30°
2026-05-08 20:24 -18.08181 177.06871 9187 ft 292 kts 30°
2026-05-08 20:25 -18.06442 177.07958 8850 ft 290 kts 30°
2026-05-08 20:25 -18.04709 177.09039 8515 ft 287 kts 30°
2026-05-08 20:25 -18.02987 177.10115 8180 ft 285 kts 31°
2026-05-08 20:25 -18.01295 177.11171 7846 ft 283 kts 30°
2026-05-08 20:26 -17.99595 177.12234 7509 ft 280 kts 30°
2026-05-08 20:26 -17.97942 177.13268 7178 ft 278 kts 30°
2026-05-08 20:26 -17.96284 177.14304 6845 ft 276 kts 30°
2026-05-08 20:26 -17.94643 177.15328 6517 ft 273 kts 30°
2026-05-08 20:27 -17.93001 177.16353 6190 ft 271 kts 30°
2026-05-08 20:27 -17.91401 177.17351 5872 ft 269 kts 30°
2026-05-08 20:27 -17.89756 177.18376 5546 ft 267 kts 30°
2026-05-08 20:27 -17.88170 177.19365 5236 ft 264 kts 30°
2026-05-08 20:28 -17.86590 177.20351 4931 ft 261 kts 30°
2026-05-08 20:28 -17.85038 177.21320 4628 ft 259 kts 31°
2026-05-08 20:28 -17.83481 177.22282 4316 ft 256 kts 28°
2026-05-08 20:28 -17.81863 177.23055 4009 ft 254 kts 20°
2026-05-08 20:29 -17.80168 177.23575 3714 ft 251 kts 15°
2026-05-08 20:29 -17.78659 177.23965 3662 ft 239 kts 14°
2026-05-08 20:29 -17.77045 177.24376 3643 ft 227 kts 14°
2026-05-08 20:29 -17.75534 177.24762 3610 ft 217 kts 14°
2026-05-08 20:30 -17.74101 177.25131 3558 ft 206 kts 14°
2026-05-08 20:30 -17.72710 177.25490 3452 ft 205 kts 15°
2026-05-08 20:30 -17.71428 177.26121 3249 ft 204 kts 48°
2026-05-08 20:30 -17.70902 177.27440 3126 ft 200 kts 90°
2026-05-08 20:31 -17.71269 177.28806 2977 ft 188 kts 111°
2026-05-08 20:31 -17.71762 177.30039 2653 ft 180 kts 110°
2026-05-08 20:31 -17.72184 177.31227 2414 ft 169 kts 107°
2026-05-08 20:31 -17.72538 177.32371 2162 ft 159 kts 106°
2026-05-08 20:32 -17.72857 177.33452 1870 ft 152 kts 106°
2026-05-08 20:32 -17.73154 177.34476 1553 ft 145 kts 106°
2026-05-08 20:32 -17.73417 177.35467 1296 ft 136 kts 104°
2026-05-08 20:32 -17.73644 177.36429 1056 ft 136 kts 103°
2026-05-08 20:33 -17.73863 177.37393 916 ft 135 kts 103°
2026-05-08 20:33 -17.74053 177.38364 961 ft 136 kts 102°
2026-05-08 20:33 -17.74273 177.39322 901 ft 136 kts 105°
2026-05-08 20:33 -17.74515 177.40283 778 ft 136 kts 105°
2026-05-08 20:34 -17.74758 177.41237 642 ft 134 kts 104°
2026-05-08 20:34 -17.74965 177.42149 393 ft 135 kts 104°
2026-05-08 20:34 -17.75408 177.44009 40 ft 120 kts 105°
2026-05-08 20:35 -17.75553 177.44620 54 ft 49 kts 104°
2026-05-08 20:35 -17.75605 177.44818 56 ft 15 kts 98°
2026-05-08 20:35 -17.75557 177.44885 56 ft 9 kts 16°
2026-05-08 20:35 -17.75526 177.44893 56 ft 4 kts 14°
2026-05-08 20:36 -17.75488 177.44904 55 ft 6 kts 15°
2026-05-08 20:36 -17.75449 177.44916 55 ft 6 kts 16°
2026-05-08 20:36 -17.75398 177.44923 54 ft 7 kts 357°
2026-05-08 20:36 -17.75343 177.44917 53 ft 7 kts 353°
2026-05-08 20:37 -17.75295 177.44917 52 ft 5 kts 10°
2026-05-08 20:37 -17.75255 177.44930 51 ft 2 kts 39°
2026-05-08 20:37 -17.75251 177.44943 51 ft 2 kts 90°
2026-05-08 20:37 -17.75254 177.44959 52 ft 1 kts 105°
2026-05-08 20:38 -17.75256 177.44968 52 ft 1 kts 105°
2026-05-08 20:38 -17.75258 177.44975 52 ft 1 kts 105°
2026-05-08 20:38 -17.75263 177.44994 53 ft 3 kts 105°
2026-05-08 20:38 -17.75266 177.45006 53 ft 0 kts 105°